Regional Weather Roundup
Issued by NWS Boston, MA

Home | Current Version | Previous Version | Text Only | Print | Product List | Glossary On
Versions: 1 2 3 4 5 6 7 8 9 10 11 12 13 14 15 16 17 18 19 20 21 22 23 24 25 26 27 28 29 30 31 32 33 34 35 36 37 38 39 40 41 42 43 44 45 46 47 48
000
ASUS41 KBOX 022210
RWRBOX

REGIONAL WEATHER ROUNDUP
NATIONAL WEATHER SERVICE TAUNTON MA
600 PM EDT SUN AUG 02 2015

NOTE:  "FAIR" INDICATES FEW OR NO CLOUDS BELOW 12,000 FEET WITH NO
SIGNIFICANT WEATHER AND/OR OBSTRUCTIONS TO VISIBILITY.  THE FOLLOWING
OBSERVATION LOCATIONS DO NOT REPORT PRESENT WEATHER...PROVINCETOWN...
SMITHFIELD...BLOCK ISLAND...KEENE...AND OXFORD.

MAZALL-022300-
EASTERN MASSACHUSETTS

CITY           SKY/WX    TMP DP  RH WIND       PRES   REMARKS
BOSTON         MOSUNNY   85  53  33 SW15      29.86S
BEVERLY        SUNNY     84  52  33 W13       29.85F
LAWRENCE       SUNNY     85  55  35 W12G18    29.86F
BEDFORD        MOSUNNY   84  51  31 SW7       29.85F
BLUE HILL        N/A     82  54  37 W10G21    29.88F
NORWOOD        MOSUNNY   85  56  37 W14       29.86F
MARSHFIELD     MOSUNNY   84  57  39 SW9G16    29.88S
PLYMOUTH       SUNNY     84  57  39 SW13G21   29.89S
TAUNTON        SUNNY     83  58  42 SW8G21    29.88S
NEW BEDFORD    SUNNY     81  58  45 S13       29.89S
$$

MAZALL-022300-
CAPE COD AND THE ISLANDS

CITY           SKY/WX    TMP DP  RH WIND       PRES   REMARKS
FALMOUTH       SUNNY     81  55  41 SW16      29.90F
HYANNIS        SUNNY     83  52  34 SW15G24   29.89S
CHATHAM        SUNNY     77  64  64 SW9       29.91S
PROVINCETOWN   SUNNY     79  59  50 SW14      29.88F
NANTUCKET      SUNNY     76  65  68 S8        29.92F
MARTHAS VNYRD  SUNNY     78  61  55 SW12      29.91F
$$

MAZALL-022300-
CENTRAL AND WESTERN MASSACHUSETTS

CITY           SKY/WX    TMP DP  RH WIND       PRES   REMARKS
WORCESTER      SUNNY     80  53  39 SW10      29.91F
FITCHBURG      SUNNY     83  55  38 SW7       29.88F
ORANGE         MOSUNNY   82  54  37 S10       29.87F
SPRINGFIELD    SUNNY     84  55  36 SW15      29.84F
WESTFIELD      SUNNY     84  55  36 S15       29.85F
NORTH ADAMS    SUNNY     81  57  43 CALM      29.85F
PITTSFIELD     SUNNY     79  55  43 SW8       29.87F
$$

RIZALL-022300-
RHODE ISLAND

CITY           SKY/WX    TMP DP  RH WIND       PRES   REMARKS
PROVIDENCE     MOSUNNY   83  56  39 SW15G22   29.90S
NEWPORT        SUNNY     77  59  53 S7        29.91S
BLOCK ISLAND     N/A     79  66  65 S10       29.93S
SMITHFIELD     SUNNY     81  57  44 SW6       29.90F
WESTERLY       SUNNY     79  64  60 S9        29.91F
$$

CTZALL-022300-
CONNECTICUT

CITY           SKY/WX    TMP DP  RH WIND       PRES   REMARKS
BRADLEY INTL   MOSUNNY   85  54  34 SW8       29.86F
HARTFORD       MOSUNNY   85  57  38 SW10G17   29.86F
BRIDGEPORT     SUNNY     83  63  50 S8        29.88F
DANBURY        SUNNY     82  57  42 S7        29.90S
GROTON         SUNNY     76  64  66 S6        29.89F
NEW HAVEN      SUNNY     84  61  45 SE6       29.89F
CHESTER        NOT AVBL
MERIDEN        SUNNY     86  56  35 S8G17     29.88F
WILLIMANTIC    MOSUNNY   83  56  39 S13       29.89S
OXFORD         MOSUNNY   81  59  47 S9        29.93F
$$

MEZ002-015-021-024-NHZ003-005-008-011-012-014-VTZ005-008-022300-
NORTHERN NEW ENGLAND

CITY           SKY/WX    TMP DP  RH WIND       PRES   REMARKS
PORTLAND ME    MOSUNNY   76  60  57 S10       29.84S
BANGOR ME      MOSUNNY   79  59  50 S13       29.82F
CONCORD NH     SUNNY     84  51  31 SW10      29.84F
MANCHESTER NH  MOSUNNY   84  54  35 SW10      29.83F
NASHUA NH      SUNNY     84  56  38 VRB7      29.85F
PORTSMOUTH NH  MOSUNNY   84  55  36 S10       29.83F
JAFFREY NH     SUNNY     79  52  38 SW9       29.90F
KEENE NH       MOSUNNY   82  55  39 S12       29.85F
BURLINGTON VT  MOSUNNY   81  59  47 S13       29.77F
MT. WASHINGTON NOT AVBL
$$

NYZ052-076-022300-
EASTERN NEW YORK

CITY           SKY/WX    TMP DP  RH WIND       PRES   REMARKS
ALBANY         MOSUNNY   86  56  35 S9        29.81F
NEW YORK CITY  MOSUNNY   85  58  39 S14G22    29.87F
$$

ANZALL-022300-
MARINE OBSERVATIONS

STATION/POSITION TIME  TEMP    WIND        PRES    VSBY  WAVE
                       AIR SEA DIR/SP/G                  HT/PER
                 (UTC) (F)     (DEG/KT/KT) (MB)    (MI)  (FT/S)
BOSTON BUOY      2150   74 72  130/  8/  8 1011.7F         1/ 9
BUZZARDS BAY     2100          210/ 12/ 12 1013.7R
NANTUCKET SOUND  2150   74 73  210/ 14/ 16 1012.6R         1/ 3
MASS BAY-STELLWA 2104   73 69  170/ 10/ 12   N/A    1 7/8  2/ 8
ISLE OF SHOALS   2100   77     190/ 16/ 17 1010.6S
S OF BLOCK IS    2108      76                N/A           3/ 8
$$

......................KEY.........................
  SKY/WX - SKY CONDITION/PRESENT WEATHER
  TMP    - TEMPERATURE IN FAHRENHEIT
  DWPT   - DEWPOINT IN FAHRENHEIT
  RH     - RELATIVE HUMIDITY IN PERCENT
  WIND   - DIRECTION AND SPEED IN MPH
  PRES   - MEAN SEA LEVEL PRESSURE IN INCHES OF HG
  WCI    - WIND CHILL INDEX
  VSB    - VISIBILITY IN MILES
  HX     - HEAT INDEX
  TC     - TEMPERATURE IN CELSIUS
  VRB    - VARIABLE WIND DIRECTION
  N/A    - NOT AVAILABLE


USA.gov is the U.S. government's official web portal to all federal, state and local government web resources and services.